This is the latest recevied weather packets stored in our database for station/object NA9VY-8. If no packets are shown the sender has not sent any weather packets the latest 10 day(s).
| Time | Temp. | Humidity | Pressure | Rain* | Wind** | Luminosity | Snow |
|---|---|---|---|---|---|---|---|
| 1777575091 | 15° C | 46% | 1020.8 hPa | 0 mm | - | 705 W/m² | - |
| 1777574786 | 15° C | 46% | 1020.9 hPa | 0 mm | - | 395 W/m² | - |
| 1777574485 | 15° C | 44% | 1021 hPa | 0 mm | - | 662 W/m² | - |
| 1777574181 | 15° C | 44% | 1021.2 hPa | 0 mm | - | 510 W/m² | - |
| 1777573875 | 13.89° C | 44% | 1021.4 hPa | 0 mm | - | 676 W/m² | - |
| 1777573571 | 14.44° C | 46% | 1021.4 hPa | 0 mm | - | 680 W/m² | - |
| 1777573267 | 14.44° C | 49% | 1021.5 hPa | 0 mm | - | 666 W/m² | - |
| 1777572963 | 15° C | 45% | 1021.5 hPa | 0 mm | - | 650 W/m² | - |
| 1777572660 | 14.44° C | 47% | 1021.6 hPa | 0 mm | - | 637 W/m² | - |
| 1777572359 | 14.44° C | 48% | 1021.7 hPa | 0 mm | - | 81 W/m² | - |
| 1777572056 | 15° C | 45% | 1021.8 hPa | 0 mm | - | 72 W/m² | - |
| 1777571756 | 14.44° C | 46% | 1021.7 hPa | 0 mm | - | 71 W/m² | - |
| 1777571454 | 14.44° C | 47% | 1021.9 hPa | 0 mm | - | 77 W/m² | - |
| 1777571149 | 14.44° C | 42% | 1022.1 hPa | 0 mm | - | 71 W/m² | - |
| 1777570845 | 15° C | 44% | 1022 hPa | 0 mm | - | 69 W/m² | - |
| 1777570541 | 14.44° C | 44% | 1022 hPa | 0 mm | - | 458 W/m² | - |
| 1777570239 | 13.89° C | 43% | 1022.3 hPa | 0 mm | - | 84 W/m² | - |
| 1777569933 | 13.89° C | 45% | 1022.2 hPa | 0 mm | - | 596 W/m² | - |
| 1777569630 | 13.89° C | 46% | 1022.3 hPa | 0 mm | - | 82 W/m² | - |
| 1777569326 | 13.89° C | 46% | 1022.3 hPa | 0 mm | - | 444 W/m² | - |
| 1777569022 | 13.89° C | 44% | 1022.6 hPa | 0 mm | - | 257 W/m² | - |
| 1777568719 | 13.89° C | 44% | 1022.6 hPa | 0 mm | - | 72 W/m² | - |
| 1777568417 | 13.89° C | 44% | 1022.4 hPa | 0 mm | - | 72 W/m² | - |
| 1777568114 | 13.33° C | 46% | 1022.4 hPa | 0 mm | - | 691 W/m² | - |
| 1777567810 | 13.33° C | 44% | 1022.3 hPa | 0 mm | - | 637 W/m² | - |
* Rain latest hour (hover to see other rain measurements)
** Current wind speed in m/s (hover to see current wind gust speed)